VLPSVLLB

Guest
Details From VLPS - PAKSE
To VLLB - LUANG PHABANG INTL
Flight Number -
Tags generated
Created
Modified
Stats Distance 375 nm / 694 km
Max Altitude 34,000 ft / 10,363 m
Waypoints 7
Social Downloads 0
Likes 0
Share VATSIM

Download

Looking for another format? Having issues loading an existing format? Contact us
Advertisement - Login to hide

Notes

Basic altitude profile: - Ascent Rate: 2500ft/min - Ascent Speed: 250kts - Cruise Altitude: 35000ft - Cruise Speed: 420kts - Descent Rate: 1500ft/min - Descent Speed: 250kts Options: - Use NATs: yes - Use PACOTS: yes - Use low airways: yes - Use high airways: yes

Route

VLPS DELTA W76 ALPHA VLLB

ID Type Via Altitude Latitude Longitude Leg Dist Tot Dist Heading (true) Name
O VLPS APT - 0 ft / 0 m 15.13205˚ 105.78142˚ - 0 nm - PAKSE
DELTA FIX - 18,600 ft / 5,669 m 16.00000˚ 105.75000˚ 52 nm 52 nm 358° / 358° -
ASAV APT W76 (AWY-LO) 34,000 ft / 10,363 m 16.85583˚ 105.24389˚ 59 nm 111 nm 331° / 330° -
TANGO FIX W76 (AWY-HI) 34,000 ft / 10,363 m 17.42500˚ 104.90500˚ 39 nm 150 nm 330° / 330° -
KADIN FIX W76 (AWY-HI) 30,700 ft / 9,357 m 18.45000˚ 104.00000˚ 80 nm 230 nm 320° / 320° -
ALPHA FIX W76 (AWY-HI) 22,400 ft / 6,828 m 18.54467˚ 103.32294˚ 38 nm 269 nm 278° / 278° -
O VLLB APT - 0 ft / 0 m 19.89726˚ 102.16084˚ 104 nm 374 nm 321° / 321° LUANG PHABANG INTL

Altitude Profile

Advertisement - Login to hide

Weather


0- 5 10 15 20 25 30 35+ Temperature / ° C

Clouds and Precipitation
Forecast for 2018-05-24 18:00 UTC. Updated 3 hours ago

Ground ~20,000 ft ~40,000 ft Winds

VLPS

Details ICAO VLPS (PKZ)
Name PAKSE
Region Laos
Timezone Asia/Vientiane (UTC+7.0)
Stats Elevation 351 ft / 107 m (AMSL)
Location 15.132051° 105.781417°
Runways 1
Magnetic Variation 0.886° W

METAR

Not found

TAF

TAF VLPS 241700Z 2418/2518 22004KT 7000 TSRA FEW016 FEW023CB BKN100

Decode

Departure Runways

ID Width Length Bearing (true) Bearing (mag) Surface Threshold Offset Overrun Length
15 118 ft / 36 m 5,350 ft / 1,631 m 147.12° 148.01° Concrete 0 ft / 0 m 660 ft / 201 m
33 118 ft / 36 m 5,350 ft / 1,631 m 327.12° 328.01° Concrete 0 ft / 0 m 627 ft / 191 m

VLLB

Details ICAO VLLB (LPQ)
Name LUANG PHABANG INTL
Region Laos
Timezone Asia/Vientiane (UTC+7.0)
Stats Elevation 955 ft / 291 m (AMSL)
Location 19.897255° 102.160844°
Runways 1
Magnetic Variation 0.996° W

METAR

Not found

TAF

TAF VLLB 241700Z 2418/2518 24004KT 7000 TS SCT010 SCT060 BKN080 TEMPO 2500/2505 7000 FEW016 SCT050 BKN070

Decode

Destination Runways

ID Width Length Bearing (true) Bearing (mag) Surface Threshold Offset Overrun Length
06 148 ft / 45 m 7,224 ft / 2,202 m 61.07° 62.07° Asphalt 0 ft / 0 m 195 ft / 59 m
24 148 ft / 45 m 7,224 ft / 2,202 m 241.07° 242.07° Asphalt 0 ft / 0 m 195 ft / 59 m

Popular Alternatives